sat.trackr.live / text

‹ back to catalog

STARLINK-3449

NORAD 51745 · 2022-016AH

PAYLOAD ACTIVE UNKNOWN

§ Identity

Operator
Country
US
Launch date
2022-02-21
Launch site
AFETR
Launch vehicle
Mass (kg)
RCS (m²)

Purposes: comms

External: N2YO · Heavens-Above · Gunter

§ Orbital elements

Epoch: 2026-09-19T22:42:32.265792Z

Period
93.85 min
Inclination
53.1590°
Eccentricity
0.0001243
Mean motion
15.34385857 rev/d
Perigee alt
461.9 km
Apogee alt
463.6 km
Semi-major
6,840.9 km
B*
1.5661e-5
RAAN
151.9986°
Arg perigee
90.6078°
Mean anomaly
269.5067°
Rev number
25,309

§ Raw data

STARLINK-34491 51745U 22016AH  26262.94620678  .00000153  00000+0  15661-4 0  99942 51745  53.1590 151.9986 0001243  90.6078 269.5067 15.34385857253099

JSON: /api/v1/satellites/51745 · /tle

For live sub-satellite position, see the globe view (requires WebGL).

§ Visibility from observer

Set your observer location to see the next 7 days of passes ≥ 10°. The values pass through the URL so the page stays shareable.

No JS? Fill the form by hand. The geolocation button needs JavaScript.